Location: Chuathbaluk
(61.5726°N, 159.2454°W)
Time: 08:00:45
(UTC+00:00)

XW-2F - Pass Details

Date: 20 January 2021
Orbit: 499 x 520 km, 97.5° (Epoch: 09 March)

Event Time Altitude Azimuth Distance (km) Brightness Sun altitude
Rises 16:04:49 0° 21° (NNE) 2,662 ? -22.6°
Reaches altitude 10° 16:07:14 10° 36° (NE) 1,771 ? -22.3°
Maximum altitude 16:10:23 24° 92° (E) 1,112 ? -21.9°
Drops below altitude 10° 16:13:32 10° 148° (SSE) 1,763 ? -21.6°
Sets 16:15:56 0° 162° (SSE) 2,646 ? -21.3°
